Orbital Elements at Epoch 2459200.5 (2020-Dec-17.0) TDB
Reference: JPL 18 (heliocentric ecliptic J2000)
Element | Value | Uncertainty (1-sigma) | Units |
e | .2336965633783289 | 5.3138e-08 | |
a | 2.445791620377273 | 2.1803e-08 | au |
q | 1.87421852395559 | 1.3639e-07 | au |
i | 10.72342039515518 | 5.7397e-06 | deg |
node | 81.72262290664604 | 2.6501e-05 | deg |
peri | 201.0029848594318 | 3.2458e-05 | deg |
M | 322.5705396492355 | 2.8292e-05 | deg |
tp | 2459345.757535267444 (2021-May-11.25753527) | 0.00011127 | TDB |
period | 1397.100364424888 3.83 | 1.8682e-05 5.115e-08 | d yr |
n | .257676548633779 | 3.4456e-09 | deg/d |
Q | 3.017364716798956 | 2.6898e-08 | au |
|
| | Orbit Determination Parameters
Additional Information
|